User: anonymous   Login
Location: Ljubljana
(46.0552°N, 14.5144°E)
Time: 03:42:32
(UTC+01:00)
Language:

ISS - Orbit

View from above orbital plane
View from above orbital plane
View from above satellite
View from above satellite

Ground track
Ground track

The orbit data is extracted from the following two-line orbital elements,

1 25544U 98067A   19055.50982470  .00016717  00000-0  10270-3 0  9024
2 25544  51.6382 201.4830 0005726  62.0299 298.1432 15.53282347 37743
Epoch (UTC): 24 February 2019 12:14:08
Eccentricity: 0.0005726
inclination: 51.6382°
perigee height: 403 km
apogee height: 411 km
right ascension of ascending node: 201.4830°
argument of perigee: 62.0299°
revolutions per day: 15.53282347
mean anomaly at epoch: 298.1432°
orbit number at epoch: 3774

The dashed part of the orbit path shows where the satellite is in the earth's shadow,  

DLR